This demonstration page uses our WeatherBlox Daily Observations layout. Learn more.

Left ArrowRight Arrow

41.86663, -103.66717

Hourly Observations for October 17, 2021

Temp ( °F °C ) Dew Point ( °F °C ) Humidity (%) Winds ( mph kmh ) Pressure ( in mb ) Visibility ( mi km ) Precip ( " mm )
12:53 am 00:53 Clear 34 1.1 30 -1.1 85 85 NNW 7 11 30.21 1023 10 16 N/A
1:53 am 01:53 Clear 34 1.1 29 -1.7 82 82 N N/A 30.19 1022 10 16 N/A
2:53 am 02:53 Clear 33 0.6 29 -1.7 85 85 NNE 5 7 30.18 1022 10 16 N/A
3:53 am 03:53 Clear 34 1.1 28 -2.2 79 79 N N/A 30.16 1021 10 16 N/A
4:53 am 04:53 Clear 31 -0.6 27 -2.8 85 85 NNW 5 7 30.16 1021 10 16 N/A
5:53 am 05:53 Clear 31 -0.6 26 -3.3 82 82 N 5 7 30.16 1021 10 16 N/A
6:53 am 06:53 Clear 30 -1.1 25 -3.9 82 82 N 5 7 30.19 1022 10 16 N/A
7:53 am 07:53 Sunny 33 0.6 28 -2.2 82 82 NNW 6 9 30.19 1022 10 16 N/A
8:53 am 08:53 Sunny 40 4.4 33 0.6 77 77 WNW 3 6 30.19 1022 10 16 N/A
9:53 am 09:53 Sunny 48 8.9 33 0.6 56 56 N N/A 30.16 1021 10 16 N/A
10:53 am 10:53 Sunny 56 13.3 34 1.1 44 44 N N/A 30.12 1020 10 16 N/A
11:53 am 11:53 Sunny 64 17.8 34 1.1 33 33 N N/A 30.07 1018 10 16 N/A
12:53 pm 12:53 Sunny 68 20 33 0.6 27 27 ESE 6 9 30.04 1017 10 16 N/A
1:53 pm 13:53 Sunny 74 23.3 32 undefined 21 21 ESE 8 13 29.98 1015 10 16 N/A
2:53 pm 14:53 Sunny 78 25.6 30 -1.1 17 17 ESE 8 13 29.93 1014 10 16 N/A
3:53 pm 15:53 Sunny 78 25.6 27 -2.8 15 15 ESE 13 20 29.91 1013 10 16 N/A
4:53 pm 16:53 Sunny 77 25 24 -4.4 14 14 SSE 10 17 29.90 1013 10 16 N/A
5:53 pm 17:53 Sunny 69 20.6 26 -3.3 20 20 SE 8 13 29.91 1013 10 16 N/A
6:53 pm 18:53 Clear 55 12.8 31 -0.6 40 40 E 7 11 29.94 1014 10 16 N/A
7:53 pm 19:53 Clear 53 11.7 31 -0.6 43 43 E 8 13 29.94 1014 10 16 N/A
8:53 pm 20:53 Clear 51 10.6 32 undefined 48 48 E 10 17 29.94 1014 10 16 N/A
9:53 pm 21:53 Clear 48 8.9 32 undefined 54 54 E 8 13 29.93 1014 10 16 N/A
10:53 pm 22:53 Clear 48 8.9 31 -0.6 52 52 E 7 11 29.90 1012 10 16 N/A
11:53 pm 23:53 Clear 47 8.3 30 -1.1 52 52 ENE 7 11 29.86 1011 10 16 N/A

Powered by AerisWeather